VLO6015 SUMU-SBPA

Flight info

Callsign VLO6015
Flight time 1h 4m
Altitude FL350
Route MOLBI UM540 ILTOG DAKA1B
Aircraft B703/H-VRDW/C

Departure

Time 2026-04-22 14:41
Airport Carrasco General Cesáreo L. Berisso International Airport (SUMU)

Arrival

Time 2026-04-22 15:45
Airport Porto Alegre-Salgado Filho International Airport (SBPA)
Time Latitude Longitude Altitude Speed Heading
2026-04-22 14:24 -34.84145 -56.02437 65 ft 0 kts 181°
2026-04-22 14:34 -34.84147 -56.02437 64 ft 1 kts 181°
2026-04-22 14:34 -34.84164 -56.02453 64 ft 5 kts 255°
2026-04-22 14:35 -34.84162 -56.02505 64 ft 7 kts 273°
2026-04-22 14:35 -34.84149 -56.02564 65 ft 8 kts 301°
2026-04-22 14:35 -34.84122 -56.02619 66 ft 8 kts 301°
2026-04-22 14:35 -34.84095 -56.02675 67 ft 8 kts 301°
2026-04-22 14:36 -34.84065 -56.02733 68 ft 8 kts 309°
2026-04-22 14:36 -34.84021 -56.02780 69 ft 9 kts 331°
2026-04-22 14:36 -34.83968 -56.02816 70 ft 9 kts 330°
2026-04-22 14:36 -34.83910 -56.02844 71 ft 8 kts
2026-04-22 14:37 -34.83872 -56.02843 72 ft 3 kts
2026-04-22 14:37 -34.83867 -56.02843 72 ft 0 kts
2026-04-22 14:38 -34.83817 -56.02844 72 ft 14 kts 359°
2026-04-22 14:38 -34.83685 -56.02815 73 ft 26 kts 40°
2026-04-22 14:38 -34.83548 -56.02603 75 ft 38 kts 54°
2026-04-22 14:38 -34.83365 -56.02305 78 ft 50 kts 52°
2026-04-22 14:39 -34.83141 -56.01939 84 ft 54 kts 52°
2026-04-22 14:39 -34.82936 -56.01605 91 ft 45 kts 52°
2026-04-22 14:39 -34.82761 -56.01338 99 ft 30 kts 49°
2026-04-22 14:40 -34.82705 -56.01239 102 ft 1 kts 195°
2026-04-22 14:40 -34.82748 -56.01297 100 ft 34 kts 234°
2026-04-22 14:40 -34.83080 -56.01841 86 ft 126 kts 234°
2026-04-22 14:40 -34.83738 -56.02864 616 ft 160 kts 239°
2026-04-22 14:41 -34.84035 -56.04156 1332 ft 167 kts 279°
2026-04-22 14:41 -34.83496 -56.05384 1961 ft 172 kts 319°
2026-04-22 14:41 -34.82359 -56.05871 2587 ft 183 kts 358°
2026-04-22 14:41 -34.81153 -56.05327 3213 ft 195 kts 35°
2026-04-22 14:42 -34.80140 -56.04197 3846 ft 198 kts 40°
2026-04-22 14:42 -34.79152 -56.03026 4471 ft 200 kts 40°
2026-04-22 14:42 -34.78155 -56.01844 5097 ft 201 kts 40°
2026-04-22 14:42 -34.77125 -56.00624 5735 ft 216 kts 40°
2026-04-22 14:43 -34.75987 -55.99282 6275 ft 240 kts 40°
2026-04-22 14:43 -34.74730 -55.97799 6802 ft 264 kts 41°
2026-04-22 14:43 -34.73376 -55.96199 7317 ft 278 kts 41°
2026-04-22 14:43 -34.71979 -55.94543 7905 ft 281 kts 41°
2026-04-22 14:44 -34.70788 -55.93131 8437 ft 283 kts 41°
2026-04-22 14:44 -34.69375 -55.91457 9062 ft 286 kts 41°
2026-04-22 14:44 -34.67949 -55.89768 9687 ft 288 kts 41°
2026-04-22 14:44 -34.66506 -55.88059 10315 ft 295 kts 41°
2026-04-22 14:45 -34.65008 -55.86290 10951 ft 310 kts 41°
2026-04-22 14:45 -34.63428 -55.84424 11589 ft 325 kts 41°
2026-04-22 14:45 -34.61763 -55.82458 12230 ft 340 kts 41°
2026-04-22 14:45 -34.60039 -55.80423 12871 ft 352 kts 42°
2026-04-22 14:46 -34.58274 -55.78336 13617 ft 358 kts 42°
2026-04-22 14:46 -34.56486 -55.76223 14392 ft 362 kts 42°
2026-04-22 14:46 -34.54675 -55.74084 15265 ft 367 kts 42°
2026-04-22 14:46 -34.52843 -55.71920 16142 ft 371 kts 42°
2026-04-22 14:47 -34.50991 -55.69733 17017 ft 375 kts 42°
2026-04-22 14:47 -34.49112 -55.67514 17897 ft 378 kts 42°
2026-04-22 14:47 -34.47231 -55.65294 18770 ft 380 kts 42°
2026-04-22 14:47 -34.45340 -55.63061 19644 ft 382 kts 42°
2026-04-22 14:48 -34.43426 -55.60803 20522 ft 391 kts 42°
2026-04-22 14:48 -34.41455 -55.58479 21405 ft 402 kts 42°
2026-04-22 14:48 -34.39438 -55.56097 22286 ft 411 kts 42°
2026-04-22 14:48 -34.37388 -55.53674 23162 ft 418 kts 42°
2026-04-22 14:49 -34.35272 -55.51220 24043 ft 422 kts 40°
2026-04-22 14:49 -34.33081 -55.48849 24919 ft 425 kts 39°
2026-04-22 14:49 -34.30871 -55.46498 25790 ft 426 kts 39°
2026-04-22 14:49 -34.28654 -55.44148 26660 ft 425 kts 39°
2026-04-22 14:50 -34.26445 -55.41808 27517 ft 423 kts 39°
2026-04-22 14:50 -34.24244 -55.39478 28265 ft 422 kts 39°
2026-04-22 14:50 -34.22051 -55.37159 29008 ft 419 kts 39°
2026-04-22 14:50 -34.19858 -55.34841 29757 ft 415 kts 39°
2026-04-22 14:51 -34.17713 -55.32574 30497 ft 409 kts 39°
2026-04-22 14:51 -34.15593 -55.30336 31237 ft 403 kts 39°
2026-04-22 14:51 -34.13506 -55.28133 31976 ft 397 kts 39°
2026-04-22 14:51 -34.11450 -55.25965 32716 ft 391 kts 39°
2026-04-22 14:52 -34.09429 -55.23835 33453 ft 384 kts 39°
2026-04-22 14:52 -34.07445 -55.21745 34190 ft 377 kts 39°
2026-04-22 14:52 -34.05481 -55.19677 34901 ft 371 kts 39°
2026-04-22 14:52 -34.03525 -55.17622 35133 ft 380 kts 39°
2026-04-22 14:53 -34.01507 -55.15505 35165 ft 393 kts 39°
2026-04-22 14:53 -33.99420 -55.13317 35168 ft 405 kts 39°
2026-04-22 14:53 -33.97278 -55.11072 35168 ft 416 kts 39°
2026-04-22 14:53 -33.95075 -55.08766 35167 ft 426 kts 39°
2026-04-22 14:54 -33.90503 -55.03982 35166 ft 444 kts 39°
2026-04-22 14:54 -33.85777 -54.99041 35165 ft 460 kts 39°
2026-04-22 14:55 -33.80901 -54.93950 35164 ft 472 kts 39°
2026-04-22 14:55 -33.75905 -54.88740 35163 ft 482 kts 39°
2026-04-22 14:56 -33.70884 -54.83510 35160 ft 477 kts 39°
2026-04-22 14:56 -33.65887 -54.78310 35160 ft 477 kts 39°
2026-04-22 14:57 -33.60900 -54.73130 35160 ft 476 kts 39°
2026-04-22 14:57 -33.55895 -54.67938 35160 ft 476 kts 39°
2026-04-22 14:58 -33.50906 -54.62770 35160 ft 476 kts 39°
2026-04-22 14:58 -33.45920 -54.57612 35159 ft 475 kts 39°
2026-04-22 14:59 -33.40937 -54.52465 35159 ft 475 kts 39°
2026-04-22 14:59 -33.35933 -54.47303 35159 ft 475 kts 39°
2026-04-22 15:00 -33.30941 -54.42161 35159 ft 475 kts 39°
2026-04-22 15:00 -33.25957 -54.37033 35159 ft 475 kts 39°
2026-04-22 15:01 -33.20946 -54.31886 35158 ft 475 kts 39°
2026-04-22 15:01 -33.15959 -54.26769 35200 ft 474 kts 39°
2026-04-22 15:02 -33.13475 -54.24223 35321 ft 472 kts 39°
2026-04-22 15:02 -33.11000 -54.21687 35412 ft 470 kts 39°
2026-04-22 15:02 -33.06066 -54.16637 35579 ft 468 kts 39°
2026-04-22 15:03 -33.01113 -54.11575 35609 ft 470 kts 39°
2026-04-22 15:03 -32.96157 -54.06517 35618 ft 472 kts 39°
2026-04-22 15:04 -32.91317 -54.01582 35628 ft 473 kts 39°
2026-04-22 15:04 -32.86186 -53.96357 35637 ft 474 kts 39°
2026-04-22 15:05 -32.81196 -53.91279 35689 ft 473 kts 39°
2026-04-22 15:05 -32.78710 -53.88753 35811 ft 471 kts 39°
2026-04-22 15:05 -32.77206 -53.87224 35868 ft 471 kts 39°
2026-04-22 15:06 -32.71242 -53.81168 35898 ft 472 kts 39°
2026-04-22 15:06 -32.66234 -53.76087 35898 ft 474 kts 39°
2026-04-22 15:07 -32.61242 -53.71026 35898 ft 475 kts 39°
2026-04-22 15:07 -32.56233 -53.65948 35898 ft 476 kts 39°
2026-04-22 15:08 -32.51219 -53.60864 35898 ft 476 kts 39°
2026-04-22 15:08 -32.46227 -53.55700 35898 ft 477 kts 40°
2026-04-22 15:09 -32.41334 -53.50432 35897 ft 478 kts 40°
2026-04-22 15:09 -32.36443 -53.45153 35897 ft 478 kts 40°
2026-04-22 15:10 -32.31531 -53.39857 35933 ft 477 kts 40°
2026-04-22 15:10 -32.29096 -53.37233 36054 ft 475 kts 40°
2026-04-22 15:10 -32.26665 -53.34617 36112 ft 474 kts 40°
2026-04-22 15:11 -32.21797 -53.29382 36127 ft 476 kts 40°
2026-04-22 15:11 -32.16918 -53.24143 36133 ft 477 kts 40°
2026-04-22 15:12 -32.12012 -53.18880 36139 ft 477 kts 40°
2026-04-22 15:12 -32.07106 -53.13624 36147 ft 478 kts 40°
2026-04-22 15:13 -32.02205 -53.08379 36155 ft 478 kts 40°
2026-04-22 15:13 -31.97278 -53.03112 36165 ft 479 kts 40°
2026-04-22 15:14 -31.92363 -52.97864 36175 ft 479 kts 40°
2026-04-22 15:14 -31.87442 -52.92615 36186 ft 479 kts 40°
2026-04-22 15:15 -31.82529 -52.87379 36197 ft 479 kts 40°
2026-04-22 15:15 -31.77588 -52.82118 36209 ft 479 kts 40°
2026-04-22 15:16 -31.72664 -52.76880 36221 ft 479 kts 40°
2026-04-22 15:16 -31.67741 -52.71644 36232 ft 479 kts 40°
2026-04-22 15:17 -31.62801 -52.66391 36242 ft 480 kts 40°
2026-04-22 15:17 -31.57878 -52.61151 36249 ft 480 kts 40°
2026-04-22 15:18 -31.52366 -52.56903 36254 ft 475 kts 27°
2026-04-22 15:18 -31.46549 -52.53274 36251 ft 475 kts 26°
2026-04-22 15:19 -31.40688 -52.49669 36246 ft 476 kts 26°
2026-04-22 15:19 -31.34846 -52.46082 36240 ft 476 kts 26°
2026-04-22 15:20 -31.29004 -52.42499 36233 ft 476 kts 26°
2026-04-22 15:20 -31.23141 -52.38906 36226 ft 476 kts 26°
2026-04-22 15:21 -31.17296 -52.35329 36219 ft 476 kts 26°
2026-04-22 15:21 -31.11451 -52.31755 36213 ft 476 kts 26°
2026-04-22 15:22 -31.05607 -52.28184 36207 ft 476 kts 26°
2026-04-22 15:22 -30.99738 -52.24602 36201 ft 476 kts 26°
2026-04-22 15:23 -30.93878 -52.21028 35915 ft 482 kts 26°
2026-04-22 15:23 -30.90885 -52.19205 35302 ft 491 kts 26°
2026-04-22 15:23 -30.87876 -52.17371 34682 ft 488 kts 26°
2026-04-22 15:24 -30.84887 -52.15548 34057 ft 482 kts 26°
2026-04-22 15:24 -30.81936 -52.13747 33431 ft 476 kts 26°
2026-04-22 15:24 -30.79022 -52.11969 32808 ft 472 kts 26°
2026-04-22 15:24 -30.76137 -52.10209 32186 ft 468 kts 26°
2026-04-22 15:25 -30.73277 -52.08463 31564 ft 463 kts 26°
2026-04-22 15:25 -30.70445 -52.06739 30941 ft 459 kts 25°
2026-04-22 15:25 -30.67628 -52.05036 30317 ft 455 kts 25°
2026-04-22 15:25 -30.64841 -52.03355 29694 ft 451 kts 25°
2026-04-22 15:26 -30.62060 -52.01678 29067 ft 446 kts 25°
2026-04-22 15:26 -30.59330 -52.00033 28445 ft 442 kts 25°
2026-04-22 15:26 -30.56616 -51.98397 27822 ft 438 kts 25°
2026-04-22 15:26 -30.53931 -51.96779 27199 ft 434 kts 25°
2026-04-22 15:27 -30.51272 -51.95176 26576 ft 430 kts 25°
2026-04-22 15:27 -30.48635 -51.93587 25953 ft 426 kts 25°
2026-04-22 15:27 -30.46124 -51.91812 25325 ft 425 kts 37°
2026-04-22 15:27 -30.43987 -51.89442 24704 ft 424 kts 45°
2026-04-22 15:28 -30.42027 -51.86922 24082 ft 420 kts 46°
2026-04-22 15:28 -30.40034 -51.84290 23432 ft 416 kts 47°
2026-04-22 15:28 -30.38147 -51.81785 22809 ft 413 kts 47°
2026-04-22 15:28 -30.36264 -51.79284 22182 ft 409 kts 47°
2026-04-22 15:29 -30.34409 -51.76821 21559 ft 405 kts 47°
2026-04-22 15:29 -30.32574 -51.74385 20937 ft 402 kts 47°
2026-04-22 15:29 -30.30752 -51.71967 20313 ft 398 kts 47°
2026-04-22 15:30 -30.27157 -51.67194 19067 ft 391 kts 47°
2026-04-22 15:30 -30.25384 -51.64839 18444 ft 388 kts 47°
2026-04-22 15:30 -30.23611 -51.62483 17815 ft 385 kts 47°
2026-04-22 15:30 -30.21882 -51.60158 17193 ft 381 kts 47°
2026-04-22 15:31 -30.20179 -51.57836 16569 ft 378 kts 47°
2026-04-22 15:31 -30.18498 -51.55537 15947 ft 375 kts 47°
2026-04-22 15:31 -30.16825 -51.53249 15323 ft 372 kts 47°
2026-04-22 15:31 -30.15173 -51.50988 14701 ft 368 kts 47°
2026-04-22 15:32 -30.13534 -51.48747 14078 ft 365 kts 47°
2026-04-22 15:32 -30.11897 -51.46506 13451 ft 362 kts 47°
2026-04-22 15:32 -30.10291 -51.44287 12824 ft 359 kts 50°
2026-04-22 15:32 -30.09166 -51.41753 12278 ft 355 kts 73°
2026-04-22 15:33 -30.08876 -51.39018 12223 ft 335 kts 87°
2026-04-22 15:33 -30.08844 -51.36421 12152 ft 316 kts 89°
2026-04-22 15:33 -30.08842 -51.33927 11809 ft 309 kts 89°
2026-04-22 15:33 -30.08844 -51.31469 11339 ft 306 kts 89°
2026-04-22 15:34 -30.08846 -51.29013 10848 ft 305 kts 89°
2026-04-22 15:34 -30.08849 -51.26584 10358 ft 303 kts 89°
2026-04-22 15:34 -30.08853 -51.24176 9868 ft 301 kts 89°
2026-04-22 15:34 -30.08858 -51.21779 9374 ft 299 kts 89°
2026-04-22 15:35 -30.08863 -51.20198 9045 ft 297 kts 89°
2026-04-22 15:35 -30.08905 -51.17103 8789 ft 274 kts 90°
2026-04-22 15:35 -30.08943 -51.15034 8763 ft 245 kts 90°
2026-04-22 15:35 -30.08978 -51.13136 8546 ft 229 kts 90°
2026-04-22 15:36 -30.09010 -51.11329 8189 ft 221 kts 90°
2026-04-22 15:36 -30.09040 -51.09582 7791 ft 216 kts 90°
2026-04-22 15:36 -30.09070 -51.07861 7346 ft 215 kts 90°
2026-04-22 15:36 -30.09101 -51.06159 6941 ft 211 kts 90°
2026-04-22 15:37 -30.09130 -51.04487 6550 ft 207 kts 90°
2026-04-22 15:37 -30.09160 -51.02838 6130 ft 206 kts 90°
2026-04-22 15:37 -30.09189 -51.01189 5705 ft 204 kts 90°
2026-04-22 15:37 -30.09219 -50.99559 5284 ft 203 kts 90°
2026-04-22 15:38 -30.09249 -50.97938 4865 ft 202 kts 90°
2026-04-22 15:38 -30.08990 -50.94794 4000 ft 197 kts 56°
2026-04-22 15:38 -30.07975 -50.93813 3540 ft 191 kts 17°
2026-04-22 15:39 -30.06736 -50.93806 3188 ft 178 kts 342°
2026-04-22 15:39 -30.05527 -50.94297 2693 ft 184 kts 338°
2026-04-22 15:39 -30.04331 -50.94813 2424 ft 184 kts 338°
2026-04-22 15:39 -30.03128 -50.95332 2383 ft 186 kts 338°
2026-04-22 15:40 -30.01916 -50.95856 2381 ft 184 kts 338°
2026-04-22 15:40 -30.00791 -50.96342 2405 ft 164 kts 337°
2026-04-22 15:40 -29.99973 -50.97107 2236 ft 144 kts 296°
2026-04-22 15:40 -29.99828 -50.98212 1969 ft 139 kts 272°
2026-04-22 15:41 -29.99804 -50.99330 1641 ft 137 kts 272°
2026-04-22 15:41 -29.99781 -51.00434 1561 ft 139 kts 272°
2026-04-22 15:41 -29.99758 -51.01556 1558 ft 141 kts 272°
2026-04-22 15:41 -29.99735 -51.02683 1555 ft 141 kts 272°
2026-04-22 15:42 -29.99713 -51.03804 1544 ft 138 kts 272°
2026-04-22 15:42 -29.99692 -51.04900 1211 ft 137 kts 272°
2026-04-22 15:42 -29.99672 -51.05997 860 ft 137 kts 272°
2026-04-22 15:42 -29.99651 -51.07104 733 ft 140 kts 272°
2026-04-22 15:43 -29.99629 -51.08226 719 ft 141 kts 272°
2026-04-22 15:43 -29.99608 -51.09345 713 ft 140 kts 272°
2026-04-22 15:43 -29.99587 -51.10468 717 ft 141 kts 272°
2026-04-22 15:43 -29.99567 -51.11597 709 ft 141 kts 272°
2026-04-22 15:44 -29.99542 -51.12716 517 ft 138 kts 273°
2026-04-22 15:44 -29.99516 -51.13831 321 ft 139 kts 273°
2026-04-22 15:44 -29.99492 -51.14944 173 ft 138 kts 272°
2026-04-22 15:44 -29.99469 -51.16014 40 ft 128 kts 272°
2026-04-22 15:45 -29.99449 -51.16903 22 ft 91 kts 271°
2026-04-22 15:45 -29.99435 -51.17472 21 ft 53 kts 272°
2026-04-22 15:45 -29.99426 -51.17792 21 ft 34 kts 272°
2026-04-22 15:45 -29.99421 -51.18038 22 ft 27 kts 272°
2026-04-22 15:46 -29.99411 -51.18227 23 ft 19 kts 290°
2026-04-22 15:46 -29.99326 -51.18247 22 ft 10 kts 27°
2026-04-22 15:46 -29.99296 -51.18229 22 ft 6 kts 27°
2026-04-22 15:47 -29.99286 -51.18223 22 ft 3 kts 27°
2026-04-22 15:47 -29.99283 -51.18221 22 ft 0 kts 27°
2026-04-22 15:47 -29.99278 -51.18218 22 ft 4 kts 27°
2026-04-22 15:48 -29.99227 -51.18159 22 ft 17 kts 50°
2026-04-22 15:48 -29.99113 -51.18076 23 ft 15 kts 23°
2026-04-22 15:48 -29.99057 -51.18098 23 ft 4 kts 306°
2026-04-22 15:48 -29.99054 -51.18103 24 ft 0 kts 306°